[[{"header":{"parameterUnit":"m.s-1","parameterCategory":1,"la1":30.2991,"la2":30.254,"lo1":-89.0895,"lo2":-89.0444,"dy":0.0017,"dx":0.0017,"nx":28,"ny":28,"refTime":"2023-08-15T09:00:00:Z","depth":0,"parameterNumber":2,"parameterNumberName":"U-component_of_WINDS"},"data":[0,0,0,0,0,0,0,0,0,0,0,0,0,0,0,0,0,0,0,0,0,0,0,0,0,0,0,0,0,0,0,0,0,0,0,0,0,0,0,0,0,0,0,0,0,0,0,0,0,0,0,0,0,0,0,0,0,0,4.5958,4.5959,0,4.6036,4.6037,4.6038,4.5991,4.5988,4.5986,4.5984,4.6065,4.607,4.6074,0,0,0,0,0,0,0,0,0,0,0,0,0,4.5772,4.5776,4.5958,4.5959,4.596,4.6036,4.6037,4.6038,4.5991,4.5988,4.5985,4.5983,4.6064,4.6069,4.6074,0,0,0,0,0,0,0,0,0,0,0,0,0,4.5852,4.5777,4.5958,4.5946,4.5945,4.6036,4.6037,4.6038,4.5991,4.5988,4.5985,4.5982,4.6062,4.6069,4.6075,4.6182,0,0,4.6094,4.6097,0,0,0,0,0,0,0,0,4.5848,4.5859,4.5947,4.5947,4.5946,4.6,4.6001,4.6087,4.5992,4.5974,4.5984,4.598,4.6047,4.6054,4.6076,4.6186,4.619,4.6095,4.6099,4.6102,4.6104,0,0,0,0,0,0,0,4.5842,4.5855,4.5989,4.5948,4.5948,4.5938,4.5945,4.6017,4.6028,4.5975,4.5972,4.5982,4.6046,4.607,4.6078,4.6191,4.6095,4.6101,4.6105,4.6107,4.6396,4.64,0,0,0,0,0,0,4.5837,4.5851,4.5987,4.5991,4.5888,4.5944,4.5952,4.5986,4.6027,4.603,4.5985,4.5979,4.6061,4.607,4.608,4.6211,4.6102,4.6108,4.6111,4.6393,4.6397,4.6401,0,0,0,0,0,0,4.5833,4.585,4.5983,4.592,4.5937,4.595,4.5989,4.599,4.6014,4.6034,4.6036,4.6007,4.6058,4.6071,4.6158,4.6213,4.6111,4.6116,4.6388,4.6394,4.6399,4.6472,0,0,0,0,0,0,4.5828,4.5849,4.5888,4.5922,4.594,4.6059,4.5993,4.5994,4.6025,4.6019,4.6056,4.6059,4.6057,4.6149,4.6164,4.622,4.6121,4.6383,4.6391,4.6398,4.6465,4.6479,4.6492,0,0,0,0,0,4.5822,4.5905,4.5891,4.5907,4.599,4.6062,4.6073,4.6068,4.6029,4.607,4.6084,4.6058,4.6205,4.6158,4.6175,4.6234,4.638,4.6389,4.6397,4.6458,4.6476,4.6492,0,0,0,0,0,0,4.5878,4.5909,4.5893,4.599,4.6024,4.6054,4.6105,4.6086,4.6132,4.6124,4.6117,4.6126,4.6217,4.6234,4.6181,4.6342,4.6286,4.6299,4.6327,4.6344,4.6358,4.6352,4.6127,0,0,0,0,0,4.5902,4.5956,4.5981,4.6064,4.6082,4.6091,4.6122,4.6116,4.615,4.6164,4.6184,4.622,4.6274,4.631,4.6361,4.6467,4.6476,4.6516,4.653,4.6541,4.6552,4.6612,4.6631,4.643,4.643,4.643,0,0,4.5951,4.5975,4.601,4.6076,4.6102,4.616,4.6103,4.6166,4.621,4.6174,4.6258,4.6274,4.6313,4.6411,4.6455,4.6428,4.661,4.6552,4.6561,4.6566,4.6623,4.6642,4.6659,4.6436,4.6435,4.6434,0,0,4.6071,4.6094,4.6167,4.6194,4.6233,4.6239,4.6257,4.6291,4.63,4.6384,4.6359,4.6411,4.6504,4.6534,4.6562,4.6697,4.6675,4.6714,4.6786,4.6844,4.686,4.6874,4.6925,4.6942,4.6725,4.6725,4.6725,0,4.6128,4.6214,4.6207,4.6273,4.6304,4.6275,4.635,4.6377,4.6431,4.6454,4.6423,4.6541,4.6565,4.667,4.6704,4.6726,4.6748,4.6709,4.6858,4.6872,4.6885,4.6933,4.6952,4.673,4.6729,4.6729,4.6728,0,4.6283,4.6343,4.6398,4.6451,4.6488,4.6559,4.6564,4.6603,4.6594,4.6604,4.6691,4.672,4.6777,4.6802,4.6793,4.6907,4.6889,4.6859,4.6803,4.6909,4.6954,4.6972,4.6736,4.6734,4.6733,4.6732,0,0,4.6439,4.649,4.651,4.6536,4.6578,4.6625,4.6696,4.6752,4.6786,4.6826,4.6886,4.6967,4.6939,4.6971,4.6966,4.7017,4.7126,4.698,4.6981,4.7008,4.7256,4.7279,4.73,4.7111,4.7115,4.7118,4.7253,0,4.6563,4.6685,4.6683,4.6797,4.6854,4.6828,4.689,4.6924,4.6935,4.6987,4.7,4.7058,4.7016,4.7036,4.7085,4.7102,4.7175,4.7092,4.7169,4.7172,4.7161,4.7324,4.7348,4.7475,4.727,4.7273,4.7275,0,4.6724,4.6769,4.6889,4.6926,4.695,4.7005,4.7058,4.7107,4.7146,4.7151,4.7188,4.7176,4.7249,4.7192,4.7294,4.7238,4.727,4.7283,4.7288,4.7295,4.723,4.7337,4.7514,4.7534,4.7303,4.73,4.7298,0,4.6829,4.692,4.7004,4.7026,4.7071,4.7111,4.7131,4.7167,4.7202,4.7248,4.7272,4.7326,4.7357,4.74,4.7404,4.7361,4.7509,4.745,4.7517,4.7517,4.7549,4.7547,4.7735,4.7568,4.7567,4.7567,4.7567,0,4.6968,4.7043,4.7052,4.7104,4.7188,4.7185,4.7269,4.7286,4.7318,4.7374,4.7355,4.7409,4.741,4.7465,4.7469,4.7555,4.7568,4.7576,4.7576,4.7578,4.7578,4.7599,4.7591,4.7572,4.7571,4.757,4.7569,0,4.7099,4.7108,4.7198,4.7234,4.7245,4.7305,4.7336,4.7387,4.7398,4.7469,4.7486,4.7503,4.7568,4.7576,4.765,4.7653,4.7757,4.7747,4.7744,4.7743,4.7809,4.7804,4.8019,4.8048,4.786,4.7862,4.7863,0,4.7188,4.7245,4.7288,4.7324,4.7347,4.7405,4.7441,4.7441,4.748,4.753,4.7576,4.7638,4.7688,4.7792,4.7812,4.7871,4.7863,4.7935,4.7872,4.7873,4.7866,4.7864,4.787,4.7947,4.7949,4.7951,4.7952,0,4.7346,4.7348,4.74,4.7456,4.7499,4.7542,4.7583,4.7614,4.762,4.7665,4.773,4.7769,4.7846,4.791,4.7967,4.799,4.7974,4.7972,4.7991,4.7994,4.799,4.7995,4.7779,4.7967,4.7965,4.7964,4.7964,4.7963,4.746,4.7511,4.7549,4.7609,4.764,4.7679,4.7729,4.7747,4.7801,4.7864,4.7861,4.7934,4.7974,4.805,4.8078,4.8136,4.8112,4.8139,4.8146,4.8153,4.816,4.798,4.8146,4.8146,4.8145,4.8145,4.8145,0,4.7618,4.7642,4.7697,4.7756,4.7803,4.7783,4.7828,4.7869,4.7934,4.7972,4.8022,4.81,4.8161,4.8187,4.8248,4.829,4.8284,4.8306,4.8304,4.831,4.8177,4.8155,4.831,4.831,4.831,4.831,4.831,4.831,4.7707,4.7792,4.7799,4.7901,4.7925,4.7996,4.8023,4.806,4.8092,4.8178,4.823,4.8246,4.828,4.8344,4.8401,4.8407,4.8431,4.8458,4.8461,4.8336,4.8319,4.8303,4.8283,4.8462,4.8463,4.8589,4.859,4.8591]},{"header":{"parameterUnit":"m.s-1","parameterCategory":1,"la1":30.2991,"la2":30.254,"lo1":-89.0895,"lo2":-89.0444,"dy":0.0017,"dx":0.0017,"nx":28,"ny":28,"refTime":"2023-08-15T09:00:00:Z","depth":0,"parameterNumber":3,"parameterNumberName":"V-component_of_WINDS"},"data":[0,0,0,0,0,0,0,0,0,0,0,0,0,0,0,0,0,0,0,0,0,0,0,0,0,0,0,0,0,0,0,0,0,0,0,0,0,0,0,0,0,0,0,0,0,0,0,0,0,0,0,0,0,0,0,0,0,0,-1.2761,-1.2761,0,-1.2773,-1.2773,-1.2774,-1.2774,-1.2774,-1.2774,-1.2773,-1.2785,-1.2785,-1.2786,0,0,0,0,0,0,0,0,0,0,0,0,0,-1.2739,-1.2739,-1.2761,-1.2761,-1.2761,-1.2773,-1.2773,-1.2774,-1.2774,-1.2774,-1.2774,-1.2773,-1.2785,-1.2785,-1.2786,0,0,0,0,0,0,0,0,0,0,0,0,0,-1.2749,-1.2739,-1.2761,-1.2763,-1.2763,-1.2773,-1.2773,-1.2774,-1.2774,-1.2774,-1.2774,-1.2773,-1.2785,-1.2785,-1.2786,-1.2795,0,0,-1.2788,-1.2788,0,0,0,0,0,0,0,0,-1.2749,-1.275,-1.2763,-1.2763,-1.2763,-1.2772,-1.277,-1.2781,-1.2774,-1.277,-1.2773,-1.2773,-1.2781,-1.2782,-1.2784,-1.2795,-1.2796,-1.2788,-1.2789,-1.2789,-1.2789,0,0,0,0,0,0,0,-1.2748,-1.275,-1.2766,-1.2763,-1.2763,-1.2764,-1.2765,-1.2772,-1.2776,-1.277,-1.277,-1.2772,-1.2781,-1.2784,-1.2785,-1.2796,-1.2788,-1.2789,-1.2789,-1.2789,-1.2816,-1.2816,0,0,0,0,0,0,-1.2747,-1.2749,-1.2765,-1.2766,-1.2755,-1.2764,-1.2765,-1.2769,-1.2776,-1.2777,-1.2772,-1.2772,-1.2783,-1.2784,-1.2785,-1.2797,-1.2789,-1.2789,-1.279,-1.2815,-1.2816,-1.2816,0,0,0,0,0,0,-1.2747,-1.2748,-1.2765,-1.2758,-1.276,-1.2765,-1.2769,-1.277,-1.2773,-1.2778,-1.2778,-1.2774,-1.2783,-1.2784,-1.2793,-1.2797,-1.279,-1.279,-1.2815,-1.2816,-1.2816,-1.2819,0,0,0,0,0,0,-1.2746,-1.2748,-1.2751,-1.2758,-1.276,-1.2772,-1.2769,-1.277,-1.2774,-1.2774,-1.278,-1.2781,-1.2783,-1.2792,-1.2793,-1.2798,-1.2791,-1.2815,-1.2815,-1.2816,-1.2819,-1.282,-1.282,0,0,0,0,0,-1.2745,-1.2751,-1.2751,-1.2753,-1.2764,-1.2772,-1.2774,-1.2776,-1.2774,-1.2777,-1.2781,-1.278,-1.2796,-1.2793,-1.2794,-1.2799,-1.2814,-1.2815,-1.2816,-1.2818,-1.2819,-1.282,0,0,0,0,0,0,-1.2744,-1.2752,-1.2752,-1.276,-1.2766,-1.2772,-1.2776,-1.2777,-1.2783,-1.2782,-1.2785,-1.2786,-1.2795,-1.2798,-1.2793,-1.2809,-1.2805,-1.2806,-1.2806,-1.2808,-1.2808,-1.2807,-1.2791,0,0,0,0,0,-1.2745,-1.2751,-1.2757,-1.2764,-1.2767,-1.2771,-1.2775,-1.2777,-1.2782,-1.2784,-1.2788,-1.2793,-1.28,-1.2804,-1.281,-1.2819,-1.2821,-1.2824,-1.2824,-1.2825,-1.2826,-1.2833,-1.2834,-1.2818,-1.2818,-1.2818,0,0,-1.2746,-1.2751,-1.2755,-1.2764,-1.2768,-1.2775,-1.2773,-1.278,-1.2785,-1.2785,-1.2793,-1.2797,-1.2803,-1.2812,-1.2817,-1.2815,-1.2831,-1.2826,-1.2827,-1.2827,-1.2834,-1.2835,-1.2836,-1.2819,-1.2819,-1.2819,0,0,-1.2753,-1.2757,-1.2763,-1.2768,-1.2775,-1.2778,-1.278,-1.2787,-1.279,-1.2798,-1.2799,-1.2805,-1.2816,-1.2821,-1.2825,-1.2835,-1.2835,-1.2837,-1.2842,-1.2848,-1.2849,-1.285,-1.2855,-1.2857,-1.2838,-1.2838,-1.2838,0,-1.2753,-1.2763,-1.2767,-1.2774,-1.2778,-1.278,-1.2787,-1.2792,-1.28,-1.2803,-1.2802,-1.2816,-1.282,-1.2831,-1.2834,-1.2837,-1.284,-1.2836,-1.2849,-1.285,-1.2851,-1.2856,-1.2857,-1.2838,-1.2838,-1.2838,-1.2838,0,-1.2765,-1.2772,-1.2776,-1.2785,-1.279,-1.2797,-1.2802,-1.2807,-1.2809,-1.2813,-1.2822,-1.2828,-1.2836,-1.2839,-1.284,-1.285,-1.2849,-1.2848,-1.2845,-1.2853,-1.2857,-1.2859,-1.2838,-1.2838,-1.2838,-1.2838,0,0,-1.2769,-1.2781,-1.2783,-1.2788,-1.2797,-1.2802,-1.281,-1.2819,-1.2823,-1.2829,-1.2836,-1.2846,-1.2846,-1.285,-1.2852,-1.2858,-1.2868,-1.2856,-1.2857,-1.2859,-1.2881,-1.2882,-1.2884,-1.2868,-1.2868,-1.2868,-1.2881,0,-1.2777,-1.2791,-1.2795,-1.2807,-1.2814,-1.2817,-1.2824,-1.283,-1.2834,-1.2841,-1.2846,-1.2853,-1.2852,-1.2855,-1.286,-1.2865,-1.2872,-1.2864,-1.2875,-1.2875,-1.2873,-1.2886,-1.2887,-1.2898,-1.2882,-1.2883,-1.2883,0,-1.2787,-1.2794,-1.2807,-1.2817,-1.282,-1.2826,-1.2835,-1.2842,-1.285,-1.2852,-1.2858,-1.2861,-1.287,-1.2866,-1.2879,-1.2874,-1.2879,-1.2882,-1.2883,-1.2884,-1.2879,-1.2888,-1.2901,-1.2903,-1.2885,-1.2885,-1.2885,0,-1.279,-1.2803,-1.2813,-1.2817,-1.2828,-1.2833,-1.2838,-1.2845,-1.2851,-1.2859,-1.2862,-1.2871,-1.2876,-1.2883,-1.2888,-1.2885,-1.2901,-1.2897,-1.2904,-1.2904,-1.2907,-1.2906,-1.2922,-1.2909,-1.2909,-1.2909,-1.2909,0,-1.2798,-1.2806,-1.2815,-1.2821,-1.283,-1.2836,-1.2845,-1.285,-1.2857,-1.2865,-1.2867,-1.2875,-1.288,-1.2888,-1.2892,-1.2903,-1.2905,-1.2908,-1.2909,-1.2908,-1.2908,-1.2911,-1.291,-1.291,-1.291,-1.291,-1.291,0,-1.2802,-1.2808,-1.282,-1.283,-1.2833,-1.2839,-1.2848,-1.2855,-1.286,-1.2869,-1.2872,-1.288,-1.289,-1.2895,-1.2907,-1.291,-1.2923,-1.2923,-1.292,-1.2921,-1.2927,-1.2926,-1.2945,-1.2948,-1.2933,-1.2933,-1.2934,0,-1.2807,-1.2813,-1.2825,-1.283,-1.2836,-1.2844,-1.285,-1.2856,-1.2862,-1.2873,-1.2879,-1.2889,-1.2897,-1.2913,-1.292,-1.293,-1.2931,-1.2937,-1.2932,-1.2931,-1.2932,-1.2931,-1.2933,-1.2937,-1.2937,-1.2937,-1.2938,0,-1.2815,-1.2818,-1.2827,-1.2837,-1.2844,-1.2852,-1.2861,-1.2865,-1.2873,-1.288,-1.289,-1.2897,-1.291,-1.2921,-1.2932,-1.2937,-1.2939,-1.2939,-1.2941,-1.294,-1.2939,-1.294,-1.2923,-1.2939,-1.2938,-1.2938,-1.2938,-1.2938,-1.282,-1.2826,-1.2836,-1.2846,-1.2853,-1.2861,-1.2868,-1.2875,-1.2884,-1.2896,-1.2899,-1.291,-1.292,-1.2935,-1.294,-1.295,-1.2949,-1.2952,-1.2952,-1.2953,-1.2954,-1.2937,-1.2952,-1.2952,-1.2952,-1.2952,-1.2952,0,-1.2828,-1.2835,-1.2845,-1.2857,-1.2865,-1.2867,-1.2877,-1.2883,-1.2893,-1.2902,-1.2911,-1.2924,-1.2935,-1.2944,-1.2955,-1.2961,-1.2962,-1.2964,-1.2963,-1.2965,-1.2954,-1.2951,-1.2963,-1.2963,-1.2963,-1.2963,-1.2963,-1.2963,-1.2834,-1.2845,-1.285,-1.2866,-1.2873,-1.2884,-1.289,-1.2898,-1.2905,-1.292,-1.2929,-1.2935,-1.2944,-1.2956,-1.2967,-1.2969,-1.2973,-1.2975,-1.2977,-1.2967,-1.2965,-1.2964,-1.2962,-1.2976,-1.2976,-1.2988,-1.2988,-1.2988]}]]